Nassau, Bahamas

1:44 PM EDT on April 19, 2018 (GMT -0400)
Nassau International

Weather History for MYNN - April, 2013

Change the Weather History Date:

Wednesday, April 3, 2013

  Actual Average Record
Temperature  
Mean Temperature 77 °F -  
Max Temperature 83 °F 82 °F 91 °F (2016)
Min Temperature 71 °F 66 °F 62 °F (2006)
Cooling Degree Days 12    
Growing Degree Days 27 (Base 50)    
Moisture  
Dew Point 67 °F    
Average Humidity 73    
Maximum Humidity 94    
Minimum Humidity 45    
Precipitation  
Precipitation 0.00 in 0.08 in - ()
Sea Level Pressure  
Sea Level Pressure 30.07 in    
Wind  
Wind Speed 5 mph ()    
Max Wind Speed 12 mph    
Max Gust Speed -    
Visibility 6.9 miles    
Events      
Averages and records for this station are not official NWS values.
T = Trace of Precipitation, MM = Missing Value Source: Averaged Metar Reports

Daily Weather History Graph

Daily Weather History Graph

Search for Another Location

Airport or City:

Astronomy

Apr. 03, 2013 Rise Set
Actual Time 6:59 AM EDT 7:27 PM EDT
Civil Twilight 6:36 AM EDT 7:50 PM EDT
Nautical Twilight 6:09 AM EDT 8:17 PM EDT
Astronomical Twilight 5:41 AM EDT 8:44 PM EDT
Moon 1:59 AM EDT (4/3) 1:14 PM EDT (4/3)
Length of Visible Light 13h 14m
Length of Day
12h 28m
Last Quarter, 45% of the Moon is Illuminated
Apr 3
Last Quarter
Apr 10
New
Apr 18
First Quarter
Apr 25
Full
May 2
Last Quarter

Hourly Weather History & Observations

Time (EDT) Temp. Heat Index Dew Point Humidity Pressure Visibility Wind Dir Wind Speed Gust Speed Precip Events Conditions
12:00 AM 73.4 °F - 69.8 °F 88% 30.10 in 6.2 mi SE 3.5 mph - N/A   Partly Cloudy
1:00 AM 73.4 °F - 68.0 °F 83% 30.09 in 6.2 mi ESE 3.5 mph - N/A   Scattered Clouds
2:00 AM 74 °F - 70 °F 85% 30.08 in 9 mi East 3.5 mph - -   Scattered Clouds
2:00 AM 73.4 °F - 69.8 °F 88% 30.08 in 6.2 mi East 3.5 mph - N/A   Partly Cloudy
3:00 AM 73.4 °F - 68.0 °F 83% 30.06 in 6.2 mi East 3.5 mph - N/A   Partly Cloudy
4:00 AM 71.6 °F - 68.0 °F 88% 30.04 in 6.2 mi Variable 2.3 mph - N/A   Partly Cloudy
5:00 AM 71 °F - 69 °F 89% 30.06 in 9 mi 1.2 mph - -   Scattered Clouds
5:00 AM 69.8 °F - 68.0 °F 94% 30.05 in 6.2 mi Variable 1.2 mph - N/A   Partly Cloudy
6:00 AM 71.6 °F - 68.0 °F 88% 30.05 in 6.2 mi ESE 3.5 mph - N/A   Partly Cloudy
7:00 AM 71.6 °F - 68.0 °F 88% 30.07 in 6.2 mi East 3.5 mph - N/A   Partly Cloudy
8:00 AM 72 °F - 69 °F 88% 30.08 in 9 mi East 2.3 mph - -   Scattered Clouds
8:00 AM 75.2 °F - 69.8 °F 83% 30.09 in 6.2 mi East 2.3 mph - N/A   Partly Cloudy
9:00 AM 77.0 °F - 68.0 °F 74% 30.10 in 6.2 mi SE 8.1 mph - N/A   Partly Cloudy
10:00 AM 77.0 °F - 68.0 °F 74% 30.10 in 6.2 mi SE 8.1 mph - N/A   Partly Cloudy
11:00 AM 81 °F - 67 °F 53% 30.10 in 9 mi SE 5.8 mph - -   Partly Cloudy
11:00 AM 80.6 °F 82.7 °F 66.2 °F 61% 30.09 in 6.2 mi SE 5.8 mph - N/A   Scattered Clouds
12:00 PM 80.6 °F 82.7 °F 66.2 °F 61% 30.10 in 6.2 mi East 11.5 mph - N/A   Scattered Clouds
1:00 PM 80.6 °F 83.2 °F 68.0 °F 65% 30.09 in 6.2 mi East 10.4 mph - N/A   Scattered Clouds
2:00 PM 82 °F - 64 °F 45% 30.07 in 9 mi ESE 5.8 mph - -   Scattered Clouds
2:00 PM 82.4 °F 83.9 °F 64.4 °F 54% 30.07 in 6.2 mi ESE 5.8 mph - N/A   Scattered Clouds
3:00 PM 80.6 °F 83.2 °F 68.0 °F 65% 30.03 in 6.2 mi ESE 9.2 mph - N/A   Mostly Cloudy
4:00 PM 80.6 °F 83.2 °F 68.0 °F 65% 30.01 in 6.2 mi SE 11.5 mph - N/A   Scattered Clouds
5:00 PM 81 °F - 64 °F 46% 30.02 in 9 mi ESE 9.2 mph - -   Partly Cloudy
5:00 PM 80.6 °F 82.3 °F 64.4 °F 58% 30.02 in 6.2 mi ESE 9.2 mph - N/A   Scattered Clouds
6:00 PM 78.8 °F - 66.2 °F 65% 30.02 in 6.2 mi East 11.5 mph - N/A   Partly Cloudy
7:00 PM 77.0 °F - 66.2 °F 69% 30.02 in 6.2 mi ESE 8.1 mph - N/A   Partly Cloudy
8:00 PM 76 °F - 67 °F 66% 30.03 in 9 mi ESE 6.9 mph - -   Scattered Clouds
8:00 PM 77.0 °F - 66.2 °F 69% 30.03 in 6.2 mi ESE 6.9 mph - N/A   Partly Cloudy
9:00 PM 75.2 °F - 68.0 °F 78% 30.05 in 6.2 mi SE 6.9 mph - N/A   Partly Cloudy
10:00 PM 75.2 °F - 68.0 °F 78% 30.09 in 6.2 mi ESE 3.5 mph - N/A   Scattered Clouds
11:00 PM 75 °F - 67 °F 71% 30.10 in 9 mi East 6.9 mph - -   Scattered Clouds
11:00 PM 75.2 °F - 68.0 °F 78% 30.09 in 6.2 mi East 6.9 mph - N/A   Partly Cloudy